RH
32 35 37 38 39 40 40 40 40 40 39 40 40 40 42 45 48 50 50 49 48 47 46 44 43 41 39 37 35 33 30 28 27 24 21 19 17 16 15 14 14 14 13 13 12 11 11 12 12 9 6 5 5 4 4 4 4 3 3 3 3 3 4 4 5 7 8 9 10 12 12 14 17 19 18 16 14 12 12 12 11 11 10 20 57
37 39 41 42 42 41 40 40 40 40 41 43 44 46 48 49 51 51 50 48 47 47 47 45 44 43 41 38 35 32 30 29 28 25 21 19 17 16 14 13 13 13 12 12 12 11 11 12 12 10 7 5 5 5 4 4 4 3 3 3 3 3 3 4 4 5 6 8 9 11 13 13 16 19 20 18 15 13 12 12 12 12 11 12 34
41 42 42 41 40 40 40 40 41 43 45 47 49 49 50 50 50 49 49 49 49 50 49 47 46 44 42 39 35 32 30 30 28 25 22 20 18 16 14 13 12 12 12 11 11 11 10 11 12 10 7 5 5 6 5 4 4 4 3 3 3 3 3 3 4 4 4 6 7 9 11 12 15 19 21 21 17 15 13 12 13 12 12 11 17
42 40 40 40 40 41 42 44 46 47 48 49 50 51 52 52 51 51 51 51 52 52 51 49 47 45 42 38 35 33 31 30 28 26 24 22 19 16 14 12 12 11 11 11 10 10 10 11 11 10 7 5 5 6 6 5 4 4 3 3 3 3 3 3 3 4 4 4 6 7 8 10 13 18 23 24 20 17 14 12 13 12 13 14 12
40 40 39 40 42 44 47 48 49 50 51 51 52 53 54 55 55 55 53 52 53 53 52 50 48 45 43 40 38 36 34 32 30 28 25 23 21 18 15 13 11 11 10 10 10 10 10 10 11 10 8 6 5 6 7 6 5 4 4 3 3 3 3 3 3 3 4 4 4 5 6 8 11 15 21 26 24 20 16 13 12 12 14 15 14
41 41 41 42 44 47 49 50 51 52 54 54 56 57 58 59 58 57 54 53 53 53 53 51 48 46 44 43 42 39 38 34 32 29 26 24 22 19 16 14 12 11 10 10 10 10 10 10 11 10 8 6 5 6 7 6 5 4 4 3 3 3 3 3 3 3 4 4 4 4 5 6 8 12 18 24 26 23 17 14 12 12 13 14 17
45 46 45 44 45 47 51 52 53 55 58 60 61 62 62 61 59 57 55 53 54 54 54 51 49 48 47 46 44 42 40 37 33 30 25 24 22 19 16 14 13 11 10 10 9 9 9 10 11 11 8 6 5 6 7 7 6 5 4 3 3 3 3 3 3 4 4 4 4 4 4 5 6 9 13 19 24 25 19 16 13 12 13 14 16
50 51 49 48 48 50 54 56 57 59 62 64 66 65 63 61 60 58 56 54 55 56 54 52 49 49 51 49 46 43 41 38 35 30 25 23 21 18 15 13 12 11 10 10 9 9 8 9 10 11 9 6 5 6 6 7 7 6 4 4 3 3 3 4 3 3 4 4 4 4 4 4 4 6 9 14 20 24 22 17 15 13 12 13 14
52 53 52 52 53 53 57 60 61 62 65 67 68 68 65 63 62 60 58 56 57 58 56 54 52 52 55 53 48 44 40 38 35 30 24 22 20 17 14 12 11 10 10 9 8 8 8 8 9 10 10 7 5 5 6 7 8 7 5 4 3 3 3 4 4 3 4 4 4 4 4 4 4 5 6 9 15 20 23 20 17 16 14 14 14
53 54 54 55 56 58 62 64 65 66 67 69 69 68 66 65 64 63 62 60 60 61 59 57 57 58 59 56 50 45 40 37 34 29 24 20 19 16 13 11 10 9 9 8 8 8 7 7 8 9 10 8 6 5 6 6 8 8 6 4 3 3 4 4 4 4 4 4 4 4 4 4 4 4 4 6 10 15 20 22 19 18 17 16 14
56 57 58 60 61 64 66 67 69 69 69 70 70 68 67 65 65 65 65 64 64 64 63 62 62 64 64 59 53 47 42 39 34 29 23 19 17 15 13 11 9 8 8 8 7 7 7 7 8 8 9 9 7 6 6 5 7 8 8 6 4 3 4 4 4 4 4 4 4 4 4 4 4 4 4 5 6 10 15 20 20 19 19 19 17
60 62 63 65 66 67 67 67 69 71 72 74 73 70 68 67 65 66 66 65 66 67 66 65 66 67 66 61 55 49 46 42 36 30 23 18 16 14 12 10 9 8 8 8 7 7 7 7 7 8 8 9 8 6 6 5 6 7 8 7 5 3 3 4 4 4 4 4 4 4 4 4 4 4 4 4 5 7 10 15 19 20 21 22 21
63 66 67 67 68 66 65 66 68 71 74 74 74 72 71 71 68 68 69 67 70 71 69 67 68 68 65 61 56 51 49 46 40 33 25 18 15 14 12 9 8 8 8 7 7 7 7 7 7 8 8 9 8 7 7 6 5 6 8 8 7 4 3 3 4 3 4 4 3 4 4 4 5 4 4 4 4 5 7 10 14 18 21 23 23
66 67 68 67 66 64 63 65 66 68 70 71 71 70 70 72 70 71 73 73 76 76 72 71 71 69 65 61 56 52 51 49 43 35 27 19 15 13 12 9 8 8 8 7 7 7 7 7 7 8 8 9 8 8 7 6 6 5 6 8 8 6 4 3 4 4 3 4 3 4 4 4 4 4 4 4 4 4 5 7 10 14 19 22 24
68 68 68 67 66 65 63 64 65 66 67 68 68 67 68 70 70 74 78 79 81 80 75 75 75 71 67 61 57 54 51 49 45 37 29 21 16 13 11 9 8 8 8 7 7 7 7 7 7 8 8 9 9 8 8 7 6 6 5 7 8 7 5 3 3 4 3 4 4 4 4 4 4 4 4 4 4 4 4 5 7 10 15 20 24
70 68 69 71 70 67 66 66 67 67 69 70 69 67 67 68 70 76 82 84 84 81 78 79 77 73 69 63 58 55 53 51 47 39 31 22 16 13 11 9 8 8 8 7 7 7 7 7 7 8 8 9 9 9 9 8 7 6 6 6 7 7 7 5 3 3 4 3 4 4 4 4 4 4 4 4 4 4 4 4 6 7 11 16 21
71 72 73 75 73 71 71 70 70 71 72 72 70 68 68 68 71 76 81 83 82 80 80 81 79 75 71 65 60 57 55 53 48 40 31 23 16 13 11 9 8 8 8 7 7 7 7 7 7 8 8 9 9 9 9 8 7 6 6 6 6 7 7 6 4 3 3 3 3 4 4 4 4 4 4 4 4 4 4 4 4 6 8 11 17
71 74 76 77 76 74 75 76 77 76 75 74 71 69 68 68 71 75 78 79 77 77 78 80 79 77 73 67 62 59 56 53 48 39 30 22 15 12 11 9 8 8 8 7 7 7 7 7 7 7 8 9 9 9 9 9 8 7 6 7 7 6 6 7 6 4 3 3 3 3 4 4 4 4 4 4 4 4 4 4 4 4 6 8 11
71 74 77 79 78 76 77 80 82 81 78 75 72 70 70 70 72 73 73 74 73 74 76 76 76 75 72 69 64 60 56 53 46 37 30 22 15 12 11 9 8 8 8 7 7 7 7 7 7 7 8 9 9 10 9 9 9 7 7 7 7 7 6 7 6 5 4 3 3 3 3 4 4 4 4 4 4 4 4 4 4 4 4 6 8
70 73 76 76 76 77 81 84 85 84 81 78 76 74 75 74 73 71 70 71 72 74 74 73 73 71 68 66 63 59 55 50 42 34 28 21 14 12 10 8 8 8 8 8 7 7 7 7 7 7 8 9 9 10 10 9 9 8 7 7 8 8 7 7 6 5 4 3 3 3 3 4 4 4 4 4 4 4 4 4 4 4 4 4 6
68 71 72 73 74 78 84 87 87 86 83 81 79 78 79 78 75 73 72 73 73 73 73 72 71 69 65 63 60 55 51 45 37 30 25 19 14 12 10 8 8 8 8 8 7 7 7 7 7 7 8 9 9 10 10 10 9 9 8 7 8 8 7 7 7 6 5 4 3 3 3 3 3 3 4 4 4 4 4 4 4 4 4 4 4
67 71 73 73 76 80 85 87 85 83 81 81 81 81 82 80 77 75 74 74 75 74 72 72 72 69 64 61 56 50 44 37 31 25 22 18 13 11 10 8 8 8 8 7 7 7 7 7 7 7 7 8 9 10 10 10 10 9 8 7 7 9 9 8 7 7 6 4 4 3 3 3 3 3 3 4 4 4 4 4 4 4 4 4 4
70 74 76 77 80 84 86 84 80 78 77 78 79 79 79 77 76 75 74 75 75 72 71 71 71 68 63 57 49 41 35 29 24 21 18 15 13 11 10 8 8 8 8 7 7 7 7 7 7 7 8 8 9 10 10 10 10 9 9 8 7 8 9 9 8 7 6 5 4 3 3 4 3 3 3 3 4 4 4 4 4 4 4 4 4
75 79 80 81 84 85 83 78 75 73 72 72 73 72 73 74 75 74 74 76 74 70 69 68 67 63 57 48 39 32 27 22 19 17 15 14 12 10 9 8 8 8 7 7 7 7 7 7 7 7 8 8 9 10 10 10 10 10 9 8 7 8 9 9 9 8 7 6 5 4 3 3 3 3 3 3 3 4 4 4 4 4 4 4 4
78 80 81 81 81 78 75 72 70 69 68 68 67 68 70 73 74 73 73 74 71 66 65 63 60 56 48 38 29 24 20 17 15 13 12 12 11 10 9 8 8 8 7 7 6 7 7 7 7 7 7 8 9 10 10 10 10 10 10 9 8 8 8 9 9 8 8 7 6 4 3 3 4 3 3 3 3 3 3 4 4 4 4 4 4
78 77 75 74 72 70 69 69 69 68 67 66 65 66 67 70 73 72 71 69 65 61 59 55 51 45 36 27 21 18 16 14 12 11 10 10 10 9 8 7 8 8 7 7 6 7 7 7 7 8 8 8 9 10 10 10 10 10 10 9 8 7 8 9 9 9 8 8 7 5 4 3 3 3 4 3 3 3 3 3 4 4 4 4 4
75 73 71 68 66 67 68 69 69 67 66 65 64 64 65 68 70 68 65 61 56 52 49 44 38 31 24 19 15 14 13 11 10 9 9 9 9 8 8 7 8 8 7 7 6 7 7 7 7 7 8 8 9 10 10 10 10 10 10 10 8 8 8 8 9 9 9 8 7 6 4 4 3 3 4 4 3 3 3 3 4 4 4 4 4
74 71 68 65 65 66 66 67 66 63 62 62 62 64 65 66 65 60 55 50 45 41 36 30 24 19 15 14 12 11 10 8 8 8 8 8 8 8 7 7 7 7 7 6 6 7 7 7 8 7 8 8 9 10 10 10 10 9 10 10 9 8 8 8 8 9 9 9 8 7 5 4 4 3 3 4 3 3 3 3 4 3 4 4 4
72 69 67 65 64 63 62 61 59 57 57 57 58 60 61 59 55 49 44 38 32 26 22 18 15 13 12 10 9 8 7 7 7 7 7 7 7 7 7 7 7 7 7 6 6 7 7 8 8 7 7 8 9 10 10 10 9 9 11 11 10 9 8 8 8 8 8 9 8 8 7 5 4 4 4 3 3 4 3 3 3 3 4 4 4
69 67 65 62 59 56 54 53 53 52 52 53 51 49 46 43 39 34 30 24 19 16 14 12 11 10 9 8 7 7 6 6 7 7 7 7 7 7 6 7 7 7 7 7 6 7 8 8 8 8 8 8 8 10 10 10 9 9 11 11 10 9 9 8 8 8 8 8 8 9 8 6 4 4 4 4 3 4 3 3 4 3 3 4 4
65 62 59 55 52 49 48 48 48 48 47 44 39 33 28 26 23 20 18 15 13 12 10 9 8 7 7 6 6 6 6 6 6 6 7 6 6 6 6 6 7 7 7 6 6 7 8 8 8 8 8 8 8 10 10 10 9 10 11 12 11 10 10 9 8 8 8 8 8 9 9 8 6 4 4 4 4 4 4 3 3 4 3 3 3
59 55 51 48 47 45 44 44 43 40 35 29 23 19 16 15 14 14 13 12 11 9 7 6 6 5 6 5 5 6 6 6 6 6 6 6 6 6 6 6 7 7 7 6 7 7 8 8 9 8 8 8 8 10 10 10 10 10 11 12 12 11 11 10 9 8 8 8 8 8 9 9 7 5 4 4 4 4 4 4 3 3 4 4 3
54 51 48 47 46 44 42 38 33 26 20 15 13 12 11 12 11 11 10 8 7 6 5 5 5 5 5 6 6 6 6 6 6 6 6 6 6 6 6 6 6 6 6 6 7 8 8 8 9 8 9 9 9 10 10 9 10 10 11 12 12 12 11 10 9 9 8 8 8 8 9 9 9 7 4 4 4 4 4 4 4 3 4 4 4
51 49 46 43 42 38 33 27 20 14 12 11 11 10 10 10 9 8 6 6 5 5 5 5 5 5 6 6 6 6 6 6 6 6 6 5 5 6 6 6 6 6 6 6 7 7 8 8 9 9 9 9 9 10 10 9 10 10 11 12 12 12 12 11 10 9 8 8 8 8 9 9 10 8 6 4 4 4 4 4 4 4 4 4 4
47 44 41 38 34 28 21 15 11 10 10 10 9 9 8 7 7 6 5 5 5 5 5 5 5 5 5 6 6 6 5 6 6 6 6 5 5 6 6 6 6 6 6 6 7 8 8 8 9 9 9 9 10 10 9 9 10 11 11 13 13 13 12 12 12 10 9 8 8 8 8 9 10 10 8 5 4 4 4 4 4 4 4 4 4
45 40 37 32 24 17 12 10 10 10 10 9 7 7 6 5 5 5 5 5 5 5 5 5 5 5 5 5 5 5 5 5 5 5 5 5 5 5 6 6 6 6 6 6 7 8 8 9 9 9 9 9 10 10 10 10 10 11 12 13 14 13 13 13 12 12 10 9 9 8 8 8 10 11 10 7 5 4 4 4 4 4 4 4 4
47 42 35 25 16 11 9 9 10 10 9 7 6 5 5 5 5 5 5 5 5 5 5 4 4 4 4 4 4 4 5 5 5 5 5 5 5 5 5 6 6 6 6 7 7 8 8 9 9 9 9 9 10 10 10 10 10 11 12 14 14 14 13 13 13 13 11 10 9 9 9 8 9 11 11 10 7 4 4 4 5 5 4 4 4
49 41 28 16 11 9 9 9 9 9 7 5 4 4 4 5 5 4 4 4 4 4 3 3 3 3 3 4 4 4 4 4 5 5 5 5 5 5 5 6 6 6 6 7 7 8 8 9 10 10 9 10 10 10 10 10 11 12 13 14 15 14 13 13 13 13 13 11 10 10 10 9 9 10 11 11 9 6 4 4 4 5 5 4 4
40 28 16 10 9 9 9 9 8 6 5 4 4 4 4 4 4 3 3 3 3 3 3 2 3 3 3 3 3 3 4 4 4 5 5 5 5 5 5 5 5 6 6 7 8 8 8 9 10 10 10 10 10 11 11 11 11 12 14 15 16 15 14 13 13 14 13 12 11 11 11 10 9 10 11 12 11 7 5 4 4 5 5 5 5
23 14 10 10 9 9 9 8 6 5 4 4 4 4 4 3 3 2 2 2 2 2 2 2 2 2 2 3 3 3 3 4 4 4 5 5 5 5 5 5 6 6 6 7 8 8 9 9 10 10 10 10 11 11 11 11 12 13 15 16 16 15 14 14 14 14 14 13 12 11 12 12 10 10 11 12 12 10 6 5 4 4 4 5 6
13 10 10 10 10 10 9 7 5 4 4 4 4 3 3 3 2 2 2 2 2 2 2 2 2 2 2 2 2 3 3 4 4 4 5 5 5 5 5 5 5 6 6 7 8 8 9 9 10 10 11 11 11 12 12 12 12 14 16 17 16 15 14 14 14 14 14 14 13 12 13 13 12 11 11 13 13 12 8 5 4 4 4 5 5
10 10 10 9 10 9 7 5 4 4 4 4 3 3 2 2 2 2 2 2 2 2 2 2 2 2 2 2 2 3 3 3 4 4 5 5 5 5 5 5 6 6 6 7 8 8 9 9 10 11 11 11 11 12 13 13 13 15 17 17 16 15 14 14 14 15 15 14 14 13 14 14 14 12 12 13 14 13 11 7 5 5 5 5 5
10 10 9 9 9 7 5 4 4 4 4 3 3 2 2 2 2 2 2 2 2 2 2 2 2 2 2 2 2 3 3 3 4 4 5 5 5 5 5 5 6 6 6 7 8 9 9 9 10 11 11 12 12 13 14 14 14 16 17 17 16 15 14 14 14 15 15 15 15 15 15 16 15 14 13 13 14 15 13 9 6 5 5 5 5
10 9 10 10 7 5 4 4 4 4 3 2 2 2 2 2 2 2 2 2 2 2 2 2 2 2 2 2 2 3 3 3 4 4 5 5 5 5 5 5 6 6 7 7 8 9 9 9 10 11 12 12 13 14 14 15 16 17 18 18 16 15 14 14 14 15 16 16 15 16 17 17 17 15 14 14 15 16 15 11 7 5 5 5 5
10 12 11 8 6 4 4 5 5 4 3 2 2 2 2 2 2 2 2 2 2 2 2 2 2 2 2 2 2 3 3 3 4 4 5 5 5 5 5 5 6 6 7 7 8 9 9 9 10 11 12 13 13 14 15 16 17 18 18 18 16 15 14 14 14 15 16 16 16 17 19 20 18 16 15 16 17 17 16 13 9 6 5 5 6
12 12 10 6 5 5 5 5 4 3 2 3 2 2 2 2 2 2 2 2 2 2 2 2 2 2 2 2 2 3 3 3 4 5 5 5 5 5 5 6 6 7 7 8 9 9 10 10 10 11 12 13 14 15 16 17 18 18 19 18 17 15 15 15 15 15 16 16 16 18 20 21 20 18 16 17 19 19 18 15 11 7 5 5 5
13 10 7 5 5 5 5 5 4 3 2 2 2 2 2 2 2 2 2 2 2 2 2 2 2 2 2 2 2 3 3 4 4 5 5 5 5 5 6 6 6 7 7 8 9 10 10 10 10 11 12 13 14 15 16 18 18 19 18 17 16 16 15 15 16 16 17 16 17 19 21 22 21 19 18 19 21 21 20 17 13 8 6 6 6
10 7 5 5 5 6 5 4 3 3 2 2 2 2 2 2 2 2 2 2 2 2 2 2 2 2 2 2 3 3 3 4 5 5 5 5 6 6 6 6 7 7 8 8 9 10 10 10 11 12 13 13 14 16 17 18 18 18 18 17 16 16 16 16 17 17 18 18 18 20 21 22 21 20 20 22 24 24 22 19 15 10 7 6 6
7 5 5 5 5 5 4 3 3 3 3 3 3 2 2 3 2 2 2 2 2 2 2 2 2 2 2 3 3 3 4 4 5 5 6 6 6 6 7 7 8 8 8 9 10 10 10 11 11 12 13 14 15 16 17 18 18 18 18 16 16 16 16 17 18 19 19 20 20 21 22 22 21 20 21 25 27 26 24 21 16 11 8 7 7
6 5 5 6 5 5 4 3 3 3 3 3 3 3 3 2 2 3 3 2 2 2 2 2 2 3 3 3 3 4 4 5 5 6 6 6 6 7 7 7 8 9 9 10 10 10 11 11 11 12 13 15 16 16 17 18 18 17 17 16 16 17 17 18 19 20 20 21 22 22 23 22 21 21 22 26 29 29 26 22 17 13 10 8 7
5 6 6 6 5 4 4 3 3 3 3 3 3 3 3 3 3 3 3 3 3 2 2 3 3 3 3 3 3 4 4 5 6 6 7 7 7 7 8 8 9 10 10 11 11 11 12 12 12 13 14 15 16 17 17 17 17 16 16 16 16 17 18 19 20 21 21 22 24 25 24 23 22 22 23 26 29 30 28 24 19 14 11 9 9
Wind_Speed
46 48 49 51 52 53 54 54 55 56 57 58 59 61 62 63 63 64 65 66 67 68 70 71 72 74 75 76 76 76 76 76 77 78 79 80 81 82 81 81 80 79 78 77 74 72 69 66 66 65 64 62 61 58 55 59 64 67 70 76 84 92 100 108 116 123 127 128 130 132 134 136 138 141 143 144 143 142 143 144 145 147 147 147 148
50 51 52 53 54 54 55 55 56 58 59 60 61 61 62 62 63 63 64 65 67 69 71 72 74 75 76 77 77 77 77 77 78 79 79 80 80 81 81 79 78 76 75 74 72 70 67 64 64 63 62 60 60 58 56 55 61 65 67 72 79 87 95 103 112 120 125 128 130 134 137 137 139 141 144 145 145 143 143 144 145 147 148 148 149
53 53 53 54 55 55 56 57 58 59 60 60 61 62 62 63 63 64 65 67 69 71 73 74 75 77 78 78 78 78 78 78 78 78 79 80 80 80 80 79 77 75 73 72 70 68 66 63 62 62 61 59 57 57 57 55 57 62 65 68 74 82 90 98 107 116 122 125 129 134 137 137 138 141 144 147 147 145 143 144 146 146 148 148 149
54 53 53 54 55 56 57 58 59 60 61 62 63 63 65 66 67 68 69 70 72 73 75 76 77 78 79 80 80 80 80 79 79 79 79 80 81 80 80 78 76 73 71 70 68 66 64 62 60 60 59 57 55 55 56 55 55 59 64 66 70 77 85 93 102 111 118 122 127 132 134 135 137 141 145 148 149 147 145 144 145 146 146 148 149
53 53 54 55 56 57 58 59 60 62 63 65 66 67 68 70 71 72 73 74 75 76 77 78 79 80 80 81 82 83 83 82 80 79 79 79 80 80 78 78 76 73 70 68 66 64 62 60 59 59 58 56 54 53 54 55 55 56 61 65 68 73 81 88 96 105 113 118 123 127 130 133 136 139 145 149 151 150 147 144 144 144 145 146 149
53 54 55 56 57 58 60 61 63 65 67 68 69 71 72 74 76 76 77 77 78 79 80 81 81 81 82 83 84 85 85 84 82 80 79 78 79 78 77 76 75 73 69 67 64 62 60 58 57 57 57 55 53 52 52 54 54 54 58 63 66 70 77 84 91 99 107 113 118 122 126 130 133 137 143 149 152 152 150 146 144 143 144 145 147
54 55 56 58 60 62 64 65 67 68 70 72 73 75 76 77 79 80 80 81 81 82 83 83 83 83 85 85 86 87 87 86 84 82 80 78 77 77 75 74 74 72 69 66 63 60 59 57 56 56 57 55 53 51 50 52 54 54 55 60 65 69 74 80 86 93 101 107 112 117 122 126 130 135 140 147 152 154 152 148 145 143 143 144 146
54 57 60 61 63 65 67 69 70 72 73 75 76 78 79 80 82 83 84 84 84 85 86 86 86 86 88 88 89 89 88 87 86 83 80 78 76 75 73 72 72 71 69 66 63 59 57 56 54 55 56 55 52 50 48 50 53 54 54 57 63 67 71 77 83 88 95 102 108 113 117 122 127 131 136 142 149 154 154 151 147 144 143 144 145
56 59 62 64 66 67 69 72 73 75 76 78 79 81 82 83 85 86 87 87 88 89 89 89 89 90 91 92 92 91 89 88 87 85 81 78 76 74 72 71 70 69 68 66 63 59 56 54 53 53 55 55 53 49 47 47 50 53 54 55 59 65 70 74 80 85 90 97 103 108 113 118 123 128 132 137 144 150 154 154 150 146 144 144 145
59 61 64 66 68 69 71 74 76 78 79 80 82 83 85 86 88 89 90 91 91 92 92 92 93 94 95 95 94 93 91 90 88 86 82 78 75 72 70 69 68 67 66 65 63 59 56 53 51 51 53 55 54 50 46 45 47 51 54 55 57 62 68 72 77 82 87 92 98 104 109 113 118 123 128 133 138 145 151 154 153 150 148 146 145
62 64 67 68 70 72 73 75 77 80 81 83 85 86 88 89 91 92 94 94 94 95 95 95 96 97 98 98 97 95 94 92 90 88 83 79 75 72 69 68 67 66 65 64 62 60 57 53 50 50 51 53 54 51 47 45 44 48 53 55 55 59 65 70 74 79 83 88 93 99 104 109 113 118 123 128 134 140 146 151 153 152 151 149 148
65 67 69 71 73 74 76 77 79 82 84 86 88 89 91 93 94 95 97 97 97 98 98 98 98 99 100 100 99 97 96 95 93 90 86 80 75 71 68 66 66 65 65 64 62 60 58 54 50 49 49 52 53 52 49 45 43 44 49 54 56 57 61 67 72 76 80 85 90 95 100 105 110 114 119 124 129 135 140 146 151 152 153 152 152
67 70 72 74 75 77 78 80 82 84 86 88 90 92 93 95 97 98 99 100 100 101 101 100 100 100 101 101 100 99 98 98 95 92 88 83 77 72 69 66 65 65 65 64 62 59 58 55 51 48 48 50 52 52 50 47 44 43 45 51 55 57 58 63 69 73 77 82 87 92 97 102 107 111 115 120 125 130 136 141 146 150 153 154 155
71 73 75 77 78 80 81 83 85 87 89 91 93 94 96 97 99 100 101 102 102 103 102 102 102 102 102 102 102 101 100 99 97 94 90 85 79 73 69 66 64 64 64 64 62 59 57 54 50 48 47 48 50 51 50 48 46 43 43 46 52 56 58 60 65 70 75 79 84 89 93 99 104 108 112 116 121 126 131 137 142 147 150 154 156
74 76 78 80 82 83 85 87 89 91 93 94 96 97 98 100 101 102 103 104 105 105 104 104 104 104 104 104 103 102 101 100 99 95 91 87 81 74 70 67 64 64 64 63 61 59 57 54 50 47 47 47 49 50 50 49 47 44 43 44 48 53 57 59 62 67 71 76 81 85 90 95 100 105 109 113 117 122 127 133 138 144 148 152 155
78 80 81 84 86 87 89 91 92 94 96 98 99 100 101 102 103 104 105 106 106 106 106 106 106 106 106 106 105 104 103 102 100 97 93 88 82 76 70 67 64 64 63 62 60 58 56 53 50 47 46 46 47 49 49 48 47 46 44 44 45 49 54 58 61 64 68 73 77 81 87 92 97 102 107 111 114 118 123 128 134 140 145 150 154
80 82 84 86 88 91 93 95 96 98 99 101 102 103 104 105 105 106 107 108 108 108 108 108 108 108 108 108 106 106 105 104 102 98 93 89 83 77 71 67 65 64 63 61 59 57 55 53 49 46 45 45 46 48 48 48 47 46 45 45 45 46 50 55 59 62 65 69 73 77 82 88 93 98 103 107 112 115 119 124 129 136 142 147 152
82 84 87 89 91 94 96 98 100 102 103 104 105 106 107 108 108 109 109 110 110 110 109 110 110 110 110 110 108 107 106 105 102 98 93 89 83 77 72 68 65 63 62 60 57 55 54 52 49 46 44 43 44 46 47 48 47 46 45 45 45 45 47 51 56 60 63 66 70 74 78 83 88 94 99 104 109 113 117 120 125 130 137 143 148
84 86 89 91 94 96 99 101 103 105 106 107 108 109 110 111 111 111 112 112 112 112 112 112 112 112 111 111 110 108 107 105 103 98 94 89 83 76 71 68 65 63 61 59 56 54 53 51 48 45 43 42 43 45 46 47 47 46 45 45 45 46 46 48 52 57 61 64 67 70 74 79 84 90 95 100 105 109 114 117 121 126 131 137 144
86 89 91 94 96 99 101 104 106 107 109 110 111 112 113 114 114 114 114 114 114 114 114 114 113 113 112 112 111 109 107 105 102 97 93 89 83 77 71 67 65 63 61 59 56 53 52 50 47 44 43 41 42 43 45 46 46 46 46 45 45 46 46 47 50 53 58 62 65 67 71 75 80 85 90 95 101 106 110 114 118 122 126 132 138
89 92 94 96 99 101 104 106 108 110 111 113 114 115 116 117 117 117 116 116 116 115 115 115 115 115 113 112 111 109 106 104 100 95 91 88 83 77 71 67 65 63 61 58 55 53 51 49 46 44 42 41 41 42 44 45 45 45 45 45 44 45 46 46 48 51 54 58 62 65 68 72 76 80 85 90 96 101 106 110 114 118 123 127 132
93 95 98 100 102 104 106 108 110 111 113 115 116 117 118 119 119 119 118 117 117 117 117 117 117 116 115 113 111 108 105 101 97 92 88 86 81 76 71 67 65 63 61 58 55 53 51 48 46 43 41 40 40 41 42 44 45 45 45 44 44 44 46 46 47 49 51 54 59 63 66 69 72 75 79 85 90 95 101 106 110 114 119 123 128
97 99 101 103 105 107 109 110 112 114 115 117 118 119 120 120 120 120 119 119 119 119 118 118 118 117 116 113 110 106 103 99 94 88 85 83 79 75 70 67 64 63 60 57 54 52 50 48 45 42 41 40 39 40 41 43 44 45 44 44 43 43 44 46 46 48 49 51 55 59 63 66 69 71 75 79 85 90 95 100 106 111 115 120 124
99 101 104 106 108 110 112 114 116 117 118 119 120 121 121 121 121 121 120 121 121 120 120 120 119 118 115 112 108 104 100 96 90 85 82 79 77 74 70 66 63 62 60 57 54 52 50 48 45 42 40 39 39 39 41 42 43 44 44 44 43 42 43 44 46 46 48 49 52 56 60 63 66 68 71 74 79 84 90 95 100 106 111 116 120
101 103 106 108 110 113 115 117 119 120 121 121 121 122 122 122 123 123 122 122 122 122 121 120 119 117 114 110 105 101 97 92 87 82 79 76 75 72 69 64 62 62 60 56 54 51 49 47 44 42 40 39 38 38 40 41 42 43 44 44 43 41 41 43 44 45 46 47 49 52 56 60 63 65 68 70 74 79 84 89 95 100 106 111 116
104 107 109 111 114 116 118 121 122 123 123 123 123 123 123 123 124 124 124 124 123 122 121 120 118 115 111 106 101 97 93 88 83 80 76 74 72 71 68 64 61 60 59 56 53 51 49 47 44 42 40 38 37 38 39 40 42 42 43 44 43 41 40 41 43 44 45 46 47 49 53 56 59 62 65 67 70 74 78 84 89 94 100 105 111
109 112 114 116 118 119 121 122 124 125 125 126 126 126 126 125 126 125 125 123 122 120 119 117 115 111 107 102 97 93 89 84 80 77 75 73 71 70 67 64 61 60 58 55 53 50 48 47 44 42 40 38 37 37 38 40 41 41 42 43 43 41 39 40 41 42 43 44 45 47 50 53 56 59 61 64 66 70 74 78 83 89 95 100 105
113 116 119 120 121 122 123 124 126 127 127 127 127 127 128 127 127 126 124 122 120 118 116 113 110 106 101 96 92 88 84 80 77 75 73 72 71 69 66 63 60 59 57 54 52 49 47 46 44 42 40 38 37 37 38 39 40 40 41 43 43 41 39 39 40 41 42 42 44 45 47 49 53 56 59 61 63 66 70 74 79 83 89 94 99
117 119 121 123 124 125 126 127 128 128 128 128 128 128 128 127 126 125 123 120 117 114 111 107 103 100 95 91 88 85 81 77 75 74 72 71 70 68 65 62 60 58 56 54 51 49 47 46 44 42 40 38 37 37 38 39 40 39 40 42 42 41 39 39 39 40 41 41 42 44 45 47 49 53 56 59 61 63 66 70 75 79 83 89 94
120 123 125 126 128 128 129 129 130 130 130 129 128 126 125 124 123 121 119 116 112 108 104 100 96 93 90 88 85 82 79 76 74 73 71 70 69 67 65 62 59 57 55 53 50 48 46 45 44 42 40 38 37 36 38 39 39 39 40 42 42 40 39 39 38 39 40 40 41 42 44 45 46 49 53 56 59 61 63 66 71 75 79 83 89
124 126 128 129 130 131 131 131 131 131 130 129 127 124 121 120 118 116 113 110 107 103 99 95 91 89 87 86 84 81 79 76 74 72 71 69 68 66 64 61 58 56 54 51 49 47 46 44 43 42 40 38 37 36 38 39 39 38 40 41 42 40 39 39 39 38 38 39 40 41 42 43 45 47 50 54 57 59 61 63 66 71 75 79 83
128 130 131 132 133 133 132 132 131 130 128 126 123 119 116 114 113 111 108 105 102 98 94 91 88 87 86 85 83 81 79 76 73 71 70 68 66 65 62 60 57 55 52 50 48 46 45 43 42 41 40 38 37 36 38 38 38 38 39 41 41 39 38 39 38 38 38 37 38 40 41 42 43 45 47 51 54 57 59 60 63 66 70 74 78
132 134 134 135 135 134 133 132 130 128 125 122 118 114 111 108 107 104 101 99 97 95 92 90 88 86 86 84 82 80 78 74 71 70 69 67 64 63 61 58 56 54 51 49 47 45 44 43 42 40 39 38 36 36 38 38 37 38 39 41 41 39 38 38 38 38 38 36 36 38 40 41 42 44 45 48 51 54 57 58 60 62 66 70 74
134 135 136 136 136 135 132 130 128 125 122 118 114 110 106 104 103 101 99 97 96 94 93 91 88 87 85 82 80 78 76 72 70 68 67 65 62 60 59 57 55 53 50 48 46 45 43 42 41 40 39 37 36 36 38 37 36 37 39 40 40 39 38 37 38 38 38 36 35 36 38 40 41 42 44 46 48 51 54 56 57 59 62 66 70
137 138 137 137 136 134 131 128 125 122 118 114 109 106 104 102 102 102 100 99 96 94 93 90 88 85 82 80 78 76 73 70 67 66 64 62 60 58 57 55 53 51 48 47 45 44 43 41 41 40 38 36 36 36 37 37 36 36 38 39 39 38 37 37 37 38 38 37 35 35 36 38 39 41 42 44 46 48 51 54 56 58 60 62 66
140 140 139 138 136 133 129 125 121 119 116 111 107 104 102 101 100 100 98 97 94 91 89 87 84 82 79 76 75 73 70 67 65 63 62 59 57 56 54 52 51 49 47 45 44 43 42 41 40 40 38 36 35 36 37 36 35 36 37 38 39 38 37 36 36 37 38 37 35 35 35 36 37 39 41 43 45 46 48 51 54 56 58 59 62
143 143 141 138 134 130 125 120 117 115 113 110 106 104 101 98 97 95 94 92 89 86 84 81 79 77 74 72 71 69 66 64 62 61 59 57 55 54 52 50 49 47 45 44 43 42 41 40 40 39 38 35 34 35 36 36 35 36 37 37 38 38 36 35 35 36 37 37 36 35 35 35 35 37 39 41 43 45 46 48 52 55 57 57 59
146 144 141 135 130 125 120 116 112 110 109 107 105 102 98 95 93 91 89 86 83 81 79 76 75 73 70 68 67 65 63 61 59 58 56 54 53 51 50 48 46 45 43 42 41 41 40 40 40 39 37 35 34 34 35 35 35 36 36 36 37 37 36 35 34 35 36 37 36 34 35 35 34 35 37 39 41 43 45 46 49 53 55 55 56
145 142 137 132 127 123 119 116 114 111 108 105 102 98 95 93 90 87 84 81 78 76 74 72 70 69 67 65 64 62 60 58 57 56 54 52 51 49 48 46 45 43 42 41 40 39 39 39 40 39 37 35 33 33 34 34 34 35 36 36 36 35 35 35 34 34 35 37 36 34 34 34 34 34 36 38 39 41 43 45 47 50 53 53 54
141 138 135 131 127 124 120 118 115 111 106 103 99 96 93 91 88 84 80 76 73 72 71 68 67 65 64 62 61 58 57 56 55 53 51 49 48 47 46 44 43 42 41 39 39 38 37 39 39 38 37 35 33 33 33 33 34 34 35 35 35 35 34 34 34 33 34 36 36 35 34 34 34 33 34 36 38 40 41 42 45 48 50 50 52
138 135 133 130 127 124 121 117 113 108 104 101 99 95 92 88 84 80 76 73 70 69 67 65 64 62 61 59 58 55 54 54 52 50 49 47 46 45 44 42 41 40 40 38 38 36 36 38 39 38 37 35 33 32 32 33 33 34 34 35 34 34 34 33 33 33 33 35 36 35 34 34 34 34 33 35 37 39 40 41 43 45 47 49 52
135 133 130 127 124 121 118 115 111 106 101 98 95 92 89 85 82 78 74 71 68 66 64 62 61 59 58 56 54 53 52 52 50 48 47 45 44 43 42 40 39 39 38 38 37 36 36 37 38 37 36 35 33 31 32 33 33 33 34 34 34 33 33 32 32 32 33 34 35 36 35 34 34 34 33 34 35 37 39 40 40 42 45 48 51
133 130 127 124 121 119 116 113 109 103 99 95 91 88 85 82 79 76 72 69 66 64 62 60 58 57 55 54 52 51 51 49 47 45 45 43 42 41 40 39 38 38 38 37 36 35 35 37 37 37 36 35 32 31 31 32 32 33 33 34 34 33 33 32 31 31 32 33 34 35 35 34 34 34 33 33 34 36 38 39 39 40 43 46 49
131 130 128 125 122 118 115 111 107 102 96 92 87 84 81 79 76 73 70 67 65 62 60 58 56 54 53 52 50 49 48 46 44 43 43 42 41 40 38 37 37 37 37 36 35 35 35 36 37 37 36 34 32 31 31 31 32 32 33 33 33 33 33 32 31 30 31 32 33 34 35 35 34 33 33 33 34 35 37 38 38 39 41 43 46
130 129 127 124 121 117 113 109 105 100 94 89 85 82 79 77 75 72 69 66 63 60 58 56 54 52 51 49 48 47 46 44 42 41 41 40 39 38 37 36 36 36 36 35 34 34 35 36 36 36 35 34 32 31 31 31 31 32 32 33 33 33 32 32 31 30 30 31 31 32 33 34 34 33 33 33 34 35 36 37 38 38 39 41 43
129 127 125 122 119 116 112 108 103 98 92 87 84 80 77 75 73 71 68 65 62 59 56 54 52 50 49 47 46 45 43 41 40 40 39 39 38 37 36 36 36 35 35 35 34 34 35 35 36 36 35 34 32 31 31 30 31 31 31 32 33 33 32 32 31 30 30 30 30 31 32 33 33 33 33 33 34 35 35 36 37 37 37 39 40
127 124 122 120 117 114 111 106 100 95 91 86 82 78 76 73 71 69 66 63 60 57 54 51 49 48 47 45 44 43 41 39 39 38 38 38 37 36 35 35 35 34 34 34 34 35 35 35 35 35 35 34 32 31 31 30 30 31 31 32 32 32 32 32 31 31 30 30 30 30 30 31 32 32 33 33 34 35 35 35 36 36 36 37 38
124 122 120 117 114 111 107 103 97 93 90 86 82 78 75 73 70 67 64 61 57 54 51 49 48 46 45 43 42 40 39 38 37 37 36 36 36 35 35 34 34 33 33 34 34 35 35 35 35 35 35 34 33 32 31 30 30 30 30 31 31 32 32 32 31 31 31 30 30 30 30 30 30 31 32 33 34 35 35 35 35 35 35 36 37
121 119 117 114 110 107 104 100 96 92 89 86 83 79 76 72 69 66 62 59 56 52 49 47 46 44 43 41 39 38 37 36 36 35 34 34 34 34 34 34 33 33 33 33 34 35 35 35 35 34 34 34 33 32 31 31 31 30 30 31 31 31 31 31 31 32 32 31 30 30 29 29 29 30 30 32 33 34 35 35 34 34 34 35 35
118 116 113 110 108 105 101 98 96 92 88 85 81 78 75 71 68 64 61 58 55 51 49 46 44 43 41 39 38 36 36 35 34 33 33 33 33 33 33 33 32 32 32 33 34 35 35 35 35 34 33 33 33 33 32 32 31 31 30 30 30 31 31 31 31 32 32 31 31 30 29 29 29 29 30 30 32 33 34 34 34 33 34 34 35
116 113 110 108 106 102 99 96 94 91 87 83 79 76 73 70 67 63 60 57 54 51 48 46 44 42 40 38 37 36 35 34 33 32 32 32 32 32 32 32 32 31 32 33 34 35 35 35 35 34 33 33 33 33 33 32 32 31 30 30 31 31 31 31 31 31 31 31 31 31 30 29 29 29 29 30 31 32 32 33 33 33 33 33 34
Wind_Direction
327 326 325 324 324 323 323 321 320 319 319 318 317 317 316 315 314 313 312 312 312 313 313 314 314 315 315 315 315 314 314 314 313 310 308 306 304 303 303 302 301 300 299 299 298 298 296 294 291 290 289 286 282 275 266 259 256 251 243 238 234 231 229 229 230 231 232 231 231 231 229 228 227 227 228 228 226 224 222 222 222 222 222 221 221
326 325 325 325 324 323 322 321 321 320 320 319 318 316 315 315 314 314 314 314 315 316 317 317 317 317 317 317 317 317 317 317 315 313 310 308 306 305 304 303 302 301 300 299 299 298 297 294 291 290 289 286 282 277 270 261 257 254 247 240 235 232 229 228 229 230 230 230 230 230 230 228 227 227 228 228 228 225 223 222 222 222 222 221 221
326 326 326 325 324 323 323 322 322 321 320 319 318 317 317 316 317 317 317 318 319 319 320 320 320 320 320 319 319 319 319 319 317 315 313 310 308 307 305 304 303 302 301 300 300 299 297 294 291 290 289 286 282 277 272 265 259 255 250 243 237 233 230 228 228 229 230 230 229 230 230 229 227 226 227 228 229 227 225 223 222 222 222 221 221
326 327 326 325 325 324 323 323 322 322 321 321 321 321 321 320 320 321 321 321 322 322 322 322 322 322 322 321 321 321 321 320 319 317 315 313 310 308 307 306 304 304 302 301 300 299 297 294 291 290 289 287 282 277 273 267 261 256 253 246 239 234 231 228 227 228 229 229 229 229 230 229 227 225 226 227 229 229 227 225 223 222 221 221 221
327 327 327 326 325 324 323 323 324 324 324 324 324 324 324 324 324 324 323 323 323 323 324 323 323 323 323 323 323 323 322 322 321 319 317 315 312 310 308 307 306 305 304 302 301 300 297 295 292 290 289 287 283 277 273 269 263 257 253 249 242 236 232 229 227 227 228 228 228 229 229 229 227 225 225 226 228 229 229 226 224 222 221 221 222
328 327 326 325 324 324 325 326 326 327 327 327 327 327 327 326 325 325 324 324 325 325 325 325 325 325 325 325 325 325 324 323 322 321 319 317 314 311 310 308 307 306 305 304 302 300 298 295 292 290 289 287 283 278 273 269 264 258 253 250 245 239 234 231 228 227 228 228 228 229 229 228 228 226 224 225 227 229 229 228 226 224 222 221 221
328 327 326 326 326 327 328 328 328 329 329 328 328 328 327 327 326 326 325 325 326 326 326 325 325 326 326 326 326 326 325 324 324 322 321 318 315 312 311 309 308 307 306 305 303 301 299 296 293 291 289 287 284 279 274 270 265 259 254 250 246 241 236 233 230 228 228 228 228 229 228 228 228 227 225 225 226 228 229 229 228 226 224 222 221
328 328 328 327 328 329 329 329 329 329 329 329 329 328 328 327 327 326 326 326 327 327 326 326 326 327 327 327 327 326 326 325 324 323 322 320 316 313 311 310 308 308 307 306 304 302 300 297 294 291 289 287 284 279 275 270 266 261 255 250 246 242 237 234 232 229 228 228 228 228 228 228 228 228 226 225 225 227 229 230 229 227 226 224 222
329 328 328 328 329 330 330 329 329 329 329 329 329 328 328 327 327 327 326 327 327 327 327 327 327 328 328 327 327 326 326 326 325 324 322 321 318 314 312 310 308 308 307 306 305 303 300 297 294 291 289 287 284 279 275 270 266 262 257 251 246 242 239 235 233 231 229 228 228 228 228 228 228 228 227 226 226 226 227 229 229 228 227 226 224
329 328 328 329 329 330 330 329 329 329 329 328 328 328 328 327 327 327 327 327 328 327 327 328 328 328 328 327 327 326 326 326 325 324 323 322 319 316 313 310 308 307 306 305 305 303 301 298 294 291 289 287 285 281 276 270 265 261 259 253 247 242 239 236 234 232 230 229 229 229 228 228 227 228 228 227 226 226 227 228 229 229 228 228 226
329 328 328 329 329 329 329 328 328 328 328 328 328 328 327 327 327 327 327 327 327 327 328 328 328 328 327 327 326 326 327 326 325 324 323 322 320 317 314 311 309 307 306 305 305 304 301 299 295 291 288 287 285 282 277 272 265 260 258 256 250 243 239 237 235 233 232 230 229 230 229 228 228 227 228 227 227 227 227 228 228 229 229 228 228
328 328 328 329 328 328 328 328 328 328 327 327 327 327 327 327 327 327 327 327 327 327 328 327 327 327 326 326 326 326 327 327 326 325 324 323 321 318 314 311 309 307 306 305 304 304 302 300 296 292 289 286 285 282 279 275 268 260 256 255 253 246 240 237 236 234 232 231 230 230 230 230 229 228 228 228 227 227 227 228 228 228 228 228 228
328 327 327 328 328 327 328 328 327 327 327 327 327 327 327 327 327 327 326 327 327 327 327 326 326 326 326 325 326 326 327 327 326 326 324 323 322 319 315 312 310 308 306 305 304 303 302 300 297 293 290 286 284 282 280 277 271 263 256 253 253 250 243 238 236 235 233 232 231 230 230 230 230 229 228 228 228 227 227 228 228 228 228 228 228
326 326 327 327 327 327 327 327 327 327 327 327 327 327 327 326 326 326 326 326 326 325 325 325 325 325 325 325 325 326 327 327 326 326 325 323 322 320 316 313 311 309 307 305 304 303 302 300 298 294 291 287 284 282 280 278 274 268 259 252 251 251 248 241 236 235 234 232 231 230 230 230 230 230 229 228 228 227 227 227 228 228 228 228 228
325 326 326 326 327 327 327 327 327 327 327 327 327 327 326 326 326 326 325 325 325 324 324 324 324 324 324 324 325 326 326 326 326 326 325 323 322 320 317 314 311 309 307 305 304 303 301 300 297 295 291 287 284 281 280 278 276 271 264 255 249 249 250 246 239 235 234 233 232 231 230 230 230 231 231 230 229 228 227 227 227 228 228 228 228
325 325 326 326 326 326 327 327 327 327 327 327 327 326 326 325 325 325 324 324 323 323 323 323 323 324 324 324 325 325 326 326 325 325 324 323 321 320 317 314 312 310 307 305 304 303 301 299 297 295 292 288 284 281 279 278 277 274 269 261 253 247 247 248 244 238 234 234 233 232 231 231 230 230 231 231 230 229 228 227 227 227 228 228 228
324 325 325 325 326 326 326 326 326 327 327 326 326 325 325 325 324 324 323 322 322 322 323 323 323 323 323 324 324 325 325 325 325 324 323 322 320 319 317 314 313 311 308 305 304 302 300 299 297 295 292 288 284 281 279 278 277 275 271 266 259 250 245 246 246 243 237 234 233 233 232 231 231 231 231 231 231 230 229 228 228 227 227 228 228
324 324 324 325 325 325 326 326 326 326 326 325 325 325 324 324 323 323 322 321 321 322 322 322 322 322 323 323 324 324 324 324 324 323 323 321 320 319 317 314 313 311 308 306 304 302 300 298 297 295 292 289 284 280 278 278 277 275 273 269 263 256 248 244 245 245 242 237 234 233 233 232 231 231 231 231 231 231 230 230 229 228 228 228 229
323 324 324 324 324 325 325 325 325 325 325 324 324 324 323 323 322 321 321 321 321 321 322 322 322 322 322 322 323 323 324 323 323 323 322 320 319 318 316 314 313 311 309 306 304 302 299 298 296 295 293 289 285 280 278 277 277 275 273 270 266 261 254 247 244 244 244 241 237 233 233 233 232 232 231 231 231 231 231 230 230 229 229 229 229
323 323 324 324 324 324 324 324 324 323 323 323 323 322 322 321 321 321 321 321 321 321 321 321 321 321 321 321 322 322 322 322 322 322 321 319 318 317 316 314 312 311 309 306 304 302 299 297 296 295 293 290 285 281 278 276 276 275 274 271 268 264 258 252 247 243 243 243 241 237 234 233 232 232 232 231 231 231 231 231 230 230 230 229 230
323 323 324 324 324 324 323 323 323 322 322 322 321 321 321 320 320 320 320 320 320 320 320 320 320 320 320 321 321 321 321 321 321 320 320 318 316 316 315 314 312 311 309 307 304 302 299 297 296 294 293 290 285 281 277 276 275 274 273 271 268 266 261 256 252 247 243 242 242 240 237 235 233 232 232 232 232 232 231 231 231 230 231 230 230
324 323 323 324 323 323 322 322 321 321 321 320 320 320 320 319 319 319 319 319 319 319 319 319 319 319 320 320 320 320 320 320 319 319 318 316 315 315 314 313 312 311 309 306 304 302 299 297 295 294 292 289 285 281 277 276 275 274 273 272 269 266 263 259 255 251 247 243 242 241 240 238 235 233 233 233 232 232 231 231 231 231 230 231 231
323 323 323 323 323 322 321 321 320 320 320 320 320 319 319 318 318 318 318 318 318 318 318 318 318 318 318 319 319 319 319 318 318 318 317 315 314 313 313 312 312 310 308 306 304 301 299 297 295 293 291 289 285 281 278 276 276 275 273 271 269 266 264 261 258 254 251 247 243 242 241 240 238 236 233 232 232 232 232 231 231 231 231 230 231
322 322 322 322 321 321 320 320 320 320 320 319 319 318 318 318 317 318 318 318 317 318 318 317 317 317 317 318 318 318 317 317 316 316 315 314 313 312 312 311 311 309 307 305 303 301 298 296 294 293 291 288 285 281 278 277 276 275 274 272 270 267 264 262 259 256 253 250 246 244 242 240 239 238 236 234 232 232 232 231 231 231 231 231 230
321 321 321 321 321 320 320 320 320 319 319 318 318 318 317 317 317 317 317 317 317 317 317 317 316 316 316 317 317 316 316 315 315 315 314 313 311 311 310 311 310 309 307 305 303 301 298 296 294 292 290 287 285 281 279 277 276 275 274 273 271 268 265 263 260 258 255 252 249 246 244 241 239 238 237 236 234 232 232 232 231 231 230 231 230
320 321 321 321 321 320 320 319 319 318 318 317 317 317 317 317 317 317 317 316 316 316 316 315 315 315 315 315 315 315 314 314 314 313 312 312 311 310 310 310 310 308 306 304 303 300 298 295 293 291 289 287 284 281 279 277 276 275 274 273 272 270 267 264 262 260 257 255 252 248 246 244 241 239 238 237 236 234 233 232 231 231 231 230 230
321 321 321 321 321 320 319 318 317 317 317 317 317 317 317 317 317 316 316 315 315 315 315 314 314 314 314 314 314 314 313 313 312 312 312 311 310 309 309 309 309 307 305 304 302 300 297 295 292 290 288 286 284 281 279 277 276 276 274 273 272 271 268 266 264 262 259 257 254 251 247 245 243 241 239 238 237 236 234 233 231 231 231 231 230
321 321 321 320 320 319 318 317 317 317 317 317 318 318 317 317 316 315 315 315 314 314 314 313 313 313 313 313 313 312 312 312 311 311 311 310 309 308 308 308 308 307 305 303 301 299 297 294 292 289 287 285 283 281 280 278 277 276 275 273 272 272 270 267 266 264 262 258 256 253 250 246 245 243 241 239 238 237 235 234 233 231 231 231 231
320 320 319 319 318 318 317 317 317 317 318 318 318 317 316 316 315 315 314 314 314 313 313 312 312 312 312 312 312 311 311 311 310 310 310 309 308 307 307 307 307 306 304 302 300 298 296 294 291 289 287 284 283 281 280 278 278 277 275 274 273 272 271 269 267 265 264 261 258 256 253 249 246 244 243 241 239 237 236 235 234 232 231 231 231
319 319 318 318 318 318 318 318 318 318 318 318 317 317 316 315 314 314 313 313 313 312 312 312 312 312 312 311 311 311 311 310 310 309 308 308 307 306 306 306 306 305 303 301 299 297 295 293 291 289 286 284 282 281 279 279 278 278 276 274 273 273 272 270 268 267 265 263 261 258 256 252 248 245 244 243 240 238 237 236 235 234 232 231 231
318 318 318 318 318 318 319 319 318 318 318 317 317 316 316 315 314 314 313 313 312 312 312 312 312 312 311 310 310 310 310 309 309 308 307 306 305 305 304 305 305 304 302 300 298 295 294 292 290 288 285 283 281 280 279 278 278 278 276 275 274 273 272 271 269 268 266 265 263 260 258 255 251 247 244 244 242 240 239 237 236 235 234 233 231
318 318 318 318 318 319 319 319 318 318 318 317 317 316 316 315 314 314 313 313 312 312 312 312 312 312 311 310 310 310 309 308 308 307 306 305 304 303 303 303 303 302 301 299 297 294 293 291 289 287 284 282 280 279 278 278 278 278 276 275 274 273 272 271 270 269 268 266 264 262 260 257 254 250 246 244 243 242 240 239 238 236 236 235 233
318 318 318 318 318 319 319 319 319 319 318 318 318 317 317 316 315 314 313 313 312 312 312 312 312 311 310 310 309 308 307 307 306 305 304 303 303 302 302 302 302 301 300 298 295 293 292 291 289 286 284 281 279 278 277 277 277 277 276 275 274 273 272 272 271 270 269 267 266 264 262 260 257 253 249 246 244 243 242 241 239 238 236 236 235
318 318 318 319 319 319 320 320 320 320 319 319 318 318 317 317 315 314 314 313 313 313 312 312 311 310 310 309 308 306 306 305 305 304 302 302 301 301 300 301 301 300 299 297 294 292 291 290 288 285 283 281 279 277 276 277 277 277 276 275 275 274 273 272 272 272 271 269 267 265 263 261 259 256 252 248 246 245 244 242 241 240 238 237 236
318 319 319 320 320 321 322 322 322 321 320 319 319 319 318 318 316 315 314 313 312 312 311 310 310 309 308 307 306 305 304 304 303 302 301 301 300 299 299 300 299 299 297 296 294 292 290 289 287 285 282 280 278 276 276 277 276 276 276 275 275 274 273 272 272 273 272 271 269 267 264 262 260 258 255 252 248 246 245 244 242 241 240 238 237
319 320 321 321 322 323 323 323 323 322 321 320 320 320 319 318 315 313 312 311 311 310 309 309 308 307 306 305 304 303 303 302 301 300 299 299 299 298 298 299 298 297 296 294 293 291 290 288 285 284 282 280 277 276 276 277 277 276 275 275 275 274 273 272 272 273 274 273 272 269 266 263 261 259 257 255 251 247 245 244 244 243 242 240 239
320 321 322 322 323 323 323 324 323 323 322 321 321 319 318 316 314 312 311 310 310 309 308 307 306 305 305 303 302 302 301 301 300 299 299 299 298 298 298 298 297 296 295 293 292 290 289 287 284 283 281 279 276 275 276 276 276 276 275 275 275 275 274 273 273 273 275 275 274 272 269 266 263 261 258 256 253 250 246 245 244 244 244 242 241
320 321 321 322 323 324 324 324 324 324 323 321 320 318 317 316 314 313 312 311 310 309 308 307 306 305 304 302 302 301 301 300 299 298 298 298 298 297 297 297 296 295 294 292 291 290 288 286 284 282 281 278 276 275 275 276 276 275 275 275 275 275 275 274 273 274 275 276 275 274 273 270 266 264 261 258 254 252 249 246 244 244 244 244 243
320 320 321 323 324 325 326 326 326 325 323 321 319 318 318 316 315 314 313 313 312 309 308 307 306 305 304 303 302 301 301 300 298 298 298 298 297 297 296 296 295 294 292 291 290 289 288 286 284 282 281 279 276 274 275 275 275 275 275 275 274 275 275 274 274 274 276 277 277 276 275 273 270 266 264 261 257 253 250 248 246 244 244 244 244
321 322 323 325 326 327 327 327 326 324 322 321 320 320 319 318 317 316 315 314 312 310 308 307 306 305 304 303 302 301 300 299 298 298 298 297 296 296 295 295 294 293 292 290 289 289 288 286 284 282 281 279 276 275 274 274 274 274 274 274 274 274 274 274 274 275 276 277 278 278 277 276 273 269 267 265 261 256 252 249 247 246 244 242 243
322 324 325 326 327 327 327 326 325 324 323 322 321 320 320 319 318 318 317 315 313 310 309 308 306 305 304 303 302 302 299 298 298 298 297 296 295 294 294 294 293 291 290 289 288 288 287 285 283 282 281 279 277 275 274 274 274 274 274 274 274 275 274 274 275 275 276 277 279 279 278 277 275 272 269 267 264 260 256 251 249 247 246 243 242
324 324 325 326 327 327 326 325 325 324 324 323 321 321 320 320 319 319 318 316 314 312 310 309 308 307 305 304 303 301 299 298 298 297 296 295 294 293 293 293 292 290 289 288 288 288 287 285 283 282 280 279 277 275 273 274 274 274 274 274 275 275 275 274 275 276 277 278 279 280 279 278 277 275 272 270 267 264 260 255 250 248 247 245 244
324 325 326 326 327 327 326 325 325 325 325 323 322 321 321 320 320 320 318 317 315 313 312 311 309 308 306 304 303 300 298 298 298 297 296 295 293 293 292 292 290 289 288 287 287 288 286 285 283 282 280 279 277 275 273 273 274 274 274 275 276 276 276 275 276 276 277 278 279 281 281 279 278 276 275 273 270 266 263 258 253 249 248 247 246
324 325 326 327 327 327 326 326 326 326 325 324 323 323 322 322 321 321 319 318 317 315 314 312 311 309 307 304 302 300 299 299 298 296 295 294 293 292 292 291 289 288 286 286 286 287 286 285 283 282 280 279 277 275 274 274 274 275 275 276 277 277 277 277 277 277 277 278 280 281 281 281 279 278 277 275 273 269 265 261 256 252 249 248 248
325 325 326 326 326 326 326 326 326 326 326 326 325 325 324 323 323 322 321 320 319 317 315 313 312 309 307 305 303 301 300 299 298 295 294 293 292 292 291 290 289 287 286 285 286 286 286 284 283 282 280 278 277 275 274 274 274 275 276 277 277 277 278 278 278 278 278 278 279 280 281 281 281 279 278 277 276 272 268 263 259 255 251 249 248
325 325 325 325 325 326 326 327 327 327 327 327 327 326 326 325 324 323 322 321 320 318 316 314 312 310 308 306 304 302 301 300 297 295 294 293 292 292 291 289 288 286 285 284 285 285 285 284 283 281 280 278 276 275 275 275 275 275 276 277 278 279 279 280 280 279 279 278 279 279 280 280 281 281 280 279 278 275 270 266 262 258 254 251 249
324 324 325 325 326 326 326 326 327 327 327 328 328 327 327 326 325 324 323 322 320 319 317 315 313 311 309 308 306 304 302 299 296 295 294 293 292 292 291 288 287 285 284 283 284 285 284 283 282 280 279 278 276 275 275 275 275 275 276 277 278 279 280 281 282 281 280 279 279 279 279 279 280 280 281 281 279 277 273 269 264 260 257 254 251
324 324 325 325 325 325 325 326 327 328 328 328 328 328 328 327 327 325 324 322 321 319 317 316 314 312 311 309 307 305 302 299 296 295 294 292 292 291 290 288 286 284 283 283 283 284 283 283 281 280 279 278 277 276 275 276 276 276 277 277 278 279 281 282 283 283 282 281 280 280 280 279 279 280 281 281 280 278 275 271 267 263 260 257 254
324 324 324 324 325 325 326 326 327 328 329 329 328 328 328 328 327 326 325 323 322 320 319 317 316 314 312 310 308 305 302 299 297 296 294 293 292 291 289 287 286 284 282 282 282 282 283 282 281 279 278 278 277 277 277 277 277 277 278 279 279 280 281 282 283 282 282 282 282 282 281 281 280 280 280 280 280 278 276 273 269 266 263 260 257
323 323 324 325 325 326 327 327 328 328 328 328 328 327 327 327 327 327 326 324 323 322 321 319 318 316 314 312 309 306 303 301 299 297 295 294 292 291 289 287 286 284 282 281 281 281 282 281 280 279 278 277 277 278 278 278 278 278 279 280 280 281 281 282 282 282 283 283 283 283 282 282 281 280 280 280 279 278 276 274 271 269 266 263 260
323 324 325 326 326 327 327 327 327 327 327 327 327 327 327 327 327 327 327 326 324 323 322 321 319 317 315 313 310 307 304 302 300 299 297 295 293 291 289 287 286 284 282 281 280 280 281 280 279 279 278 277 277 278 278 278 279 280 280 281 281 281 282 282 281 282 282 283 283 284 283 282 281 280 280 280 279 278 276 274 273 271 268 266 264